Regional Weather Roundup
Issued by NWS Sterling, VA

Home | Current Version | Previous Version | Text Only | Print | Product List | Glossary On
Versions: 1 2 3 4 5 6 7 8 9 10 11 12 13 14 15 16 17 18 19 20 21 22 23 24 25 26 27
000
ASUS41 KLWX 220811
RWRLWX

REGIONAL WEATHER ROUNDUP
NATIONAL WEATHER SERVICE BALTIMORE MD/WASHINGTON DC
400 AM EDT SUN OCT 22 2017

Note: "FAIR" indicates few or no clouds below 12,000 feet
with no significant weather and/or obstructions to visibility.
 TC=TEMPERATURE CELSIUS

 * =Non NWS site. Station does not report precipitation (e.g. rain,
    snow, etc.), thunder, or fog.

DCZ001-MDZ009-015-VAZ040>042-051-053>054-220900-
WASHINGTON METRO

CITY           SKY/WX    TMP DP  RH WIND       PRES   REMARKS
WASHINGTON NAT CLOUDY    56  51  84 CALM      30.35F
DULLES         CLOUDY    47  47 100 CALM      30.34S
ANDREWS AFB    CLOUDY    51  46  82 CALM      30.34S
FT BELVOIR     CLOUDY    48  47  96 CALM      30.34F
QUANTICO       CLEAR     52  51  97 NW8       30.35F
COLLEGE PARK*  CLOUDY    47  46  96 CALM      30.35S
LEESBURG*      PTCLDY    50  48  93 CALM      30.34F
MANASSAS*      CLOUDY    45  44  97 CALM      30.35S
GAITHERSBURG*  CLOUDY    48  45  89 CALM      30.35F

$$

MDZ006>007-011-014-220900-
BALTIMORE METRO

CITY           SKY/WX    TMP DP  RH WIND       PRES   REMARKS
BWI AIRPORT    MOCLDY    48  47  96 CALM      30.34S
MD SCIENCE CTR   N/A     58  50  75 MISG      30.35S
MARTIN STATE   CLEAR     50  50 100 CALM      30.36S
ANNAPOLIS      CLEAR     55  55 100 CALM      30.34R
FORT MEADE*    CLEAR     45  43  93 CALM      30.37S

$$

MDZ012-015-019>023-220900-
MARYLAND EASTERN SHORE

CITY           SKY/WX    TMP DP  RH WIND       PRES   REMARKS
OCEAN CITY     CLOUDY    50  50 100 CALM      30.35S FOG
SALISBURY      CLOUDY    48  47  96 CALM      30.34F
CAMBRIDGE*     CLEAR     48  48 100 CALM      30.34F
EASTON*        PTCLDY    50  48  91 CALM      30.38S

$$

MDZ017>025-220900-
SOUTHERN MARYLAND

CITY           SKY/WX    TMP DP  RH WIND       PRES   REMARKS
PATUXENT RIVER CLEAR     50  50 100 CALM      30.34S
ST INIGOES     PTCLDY    50  49  96 NE3       30.33F FOG
LEONARDTOWN*   NOT AVBL

$$

MDZ003>005-220900-
NORTH CENTRAL MARYLAND

CITY           SKY/WX    TMP DP  RH WIND       PRES   REMARKS
FREDERICK*     PTCLDY    45  45 100 CALM      30.37S
HAGERSTOWN APT CLEAR     57  45  64 E6        30.32F
WESTMINSTER*   CLEAR     52  45  76 CALM      30.34S

$$

MDZ501>502-220900-
WESTERN MARYLAND

CITY           SKY/WX    TMP DP  RH WIND       PRES   REMARKS
OAKLAND*       CLEAR     52  46  82 S9        30.30S
CUMBERLAND*    CLEAR     50  48  93 CALM      30.35F

$$

VAZ025>031-220900-
SHENANDOAH VALLEY

CITY           SKY/WX    TMP DP  RH WIND       PRES   REMARKS
WINCHESTER*    CLEAR     46  43  87 CALM      30.32S
FRONT ROYAL*   CLEAR     48  46  93 MISG      30.31F
LURAY*         PTCLDY    50  50 100 CALM      30.32F
NEW MARKET*    CLOUDY    47  46  96 CALM      30.32S
STAUNTON*      PTCLDY    45  43  94 CALM      30.35S
WAYNESBORO*    CLOUDY    52  51  95 SW3       30.33F

$$

WVZ021-048>050-054>055-220900-
EASTERN WEST VIRGINIA PANHANDLE

CITY           SKY/WX    TMP DP  RH WIND       PRES   REMARKS
MARTINSBURG    CLEAR     47  45  93 CALM      30.31F
PETERSBURG*    PTCLDY    43  43  99 CALM      30.32S

$$

VAZ036>039-050-220900-
CENTRAL FOOTHILLS

CITY           SKY/WX    TMP DP  RH WIND       PRES   REMARKS
CHARLOTTESVILL PTCLDY    55  52  89 NW3       30.33F
CULPEPER*      CLEAR     46  45  95 CALM      30.35S
ORANGE*        CLEAR     46  46 100 CALM      30.33F
GORDONSVILLE*  CLEAR     49  49 100 CALM      30.33F
WARRENTON*     CLEAR     45  42  88 CALM      30.33F

$$

VAZ055>057-220900-
NORTH AND CENTRAL PIEDMONT

CITY           SKY/WX    TMP DP  RH WIND       PRES   REMARKS
FREDERICKSBRG* CLEAR     49  49 100 CALM      30.33F
STAFFORD*      CLEAR     45  45 100 CALM      30.38S

$$

NCZ024-NYZ072-PAZ021-071-VAZ022-071-220900-
OTHER REGIONAL OBSERVATIONS

CITY           SKY/WX    TMP DP  RH WIND       PRES   REMARKS
NEW YORK CITY  CLEAR     62  45  53 CALM      30.38R
PHILADELPHIA   PTCLDY    53  47  79 CALM      30.36S
PITTSBURGH     PTCLDY    52  50  93 CALM      30.26R
ROANOKE        CLEAR     52  51  97 CALM      30.35F
RICHMOND       PTCLDY    52  51  97 CALM      30.33F
RALEIGH        MOCLDY    54  54 100 CALM      30.34S

$$

ANZ530>537-220900-
MARINE OBSERVATIONS

STATION/POSITION TIME  TEMP    WIND        PRES
                       AIR SEA DIR/SP/G
                 (UTC) (F)     (DEG/KT/KT) (MB)
THOMAS PT LIGHT  0800   61 67  290/  5/  6   N/A
BALT KEY BRIDGE  0742   60      40/  3/  3 1027.5R
COVE POINT       0742   63     220/  5/  6 1028.0S
LEWISETTA        0742   58 66  280/  2/  3 1027.2F
SOLOMONS ISLAND  0742   58 69  330/  3/  4 1027.0S
PINEY POINT      0724          230/  3/  3   N/A

$$





USA.gov is the U.S. government's official web portal to all federal, state and local government web resources and services.